User: anonymous   Login
Location: Pine Mountain Observatory
(43.7910°N, 120.9377°W)
Time: 00:10:56
(UTC-08:00)
Language:

APEX - Orbit

View from above orbital plane
View from above orbital plane
View from above satellite
View from above satellite

Ground track
Ground track

The orbit data is extracted from the following two-line orbital elements,

1 23191U 94046A   16339.12289513  .00005757  00000-0  19880-3 0  9995
2 23191  69.9246 310.4122 0614899 156.9032 206.1061 14.35087550 88549
Epoch (UTC): 04 December 2016 02:56:58
Eccentricity: 0.0614899
inclination: 69.9246°
perigee height: 335 km
apogee height: 1214 km
right ascension of ascending node: 310.4122°
argument of perigee: 156.9032°
revolutions per day: 14.35087550
mean anomaly at epoch: 206.1061°
orbit number at epoch: 8854

The dashed part of the orbit path shows where the satellite is in the earth's shadow,  

DLR